Weather History for Hobart, OK

Change the Weather History Date:

Friday, January 24, 2014

  Actual Average Record
Temperature  
Mean Temperature 26 °F -  
Max Temperature 46 °F 48 °F 64 °F (1999)
Min Temperature 7 °F 26 °F 7 °F (2014)
Degree Days  
Heating Degree Days 38    
Moisture  
Dew Point 6 °F    
Average Humidity 46    
Maximum Humidity 67    
Minimum Humidity 24    
Precipitation  
Precipitation 0.00 in - - ()
Sea Level Pressure  
Sea Level Pressure 30.47 in    
Wind  
Wind Speed 12 mph (SW)    
Max Wind Speed 23 mph    
Max Gust Speed 30 mph    
Visibility 10 miles    
Events      
Averages and records for this station are not official NWS values.
T = Trace of Precipitation, MM = Missing Value Source: NWS Daily Summary

Daily Weather History Graph

Daily Weather History Graph

Search for Another Location

Airport:

Trip Planner

Search our weather history database for the weather conditions in past years. The results will help you decide how hot, cold, wet, or windy it might be!

Date:

Astronomy

Jan. 24, 2014 Rise Set
Actual Time 7:40 AM CST 5:56 PM CST
Civil Twilight 7:13 AM CST 6:23 PM CST
Nautical Twilight 6:42 AM CST 6:54 PM CST
Astronomical Twilight 6:12 AM CST 7:24 PM CST
Moon 1:12 AM CST (1/24) 12:14 PM CST (1/24)
Length of Visible Light 11h 10m
Length of Day
10h 16m
Last Quarter, 44% of the Moon is Illuminated
Jan 24
Last Quarter
Jan 30
New
Feb 6
First Quarter
Feb 14
Full
Feb 22
Last Quarter

Hourly Weather History & Observations

Time (CST) Temp. Windchill Dew Point Humidity Pressure Visibility Wind Dir Wind Speed Gust Speed Precip Events Conditions
12:53 AM 7.0 °F -4.5 °F -4.0 °F 61% 30.83 in 10.0 mi West 6.9 mph - N/A   Clear
1:53 AM 8.1 °F -2.0 °F -4.0 °F 58% 30.82 in 10.0 mi West 5.8 mph - N/A   Clear
2:53 AM 7.0 °F -1.7 °F -4.0 °F 61% 30.79 in 10.0 mi West 4.6 mph - N/A   Clear
3:53 AM 7.0 °F -5.7 °F -2.9 °F 64% 30.76 in 10.0 mi WSW 8.1 mph - N/A   Clear
4:53 AM 7.0 °F -4.5 °F -2.0 °F 67% 30.73 in 10.0 mi WSW 6.9 mph - N/A   Clear
5:53 AM 8.1 °F -3.2 °F -2.0 °F 64% 30.71 in 10.0 mi WSW 6.9 mph - N/A   Clear
6:53 AM 10.0 °F -3.7 °F -2.9 °F 56% 30.67 in 10.0 mi SSW 10.4 mph - N/A   Clear
7:53 AM 10.0 °F -4.5 °F -0.9 °F 61% 30.66 in 10.0 mi SSW 11.5 mph - N/A   Clear
8:53 AM 16.0 °F 1.7 °F 5.0 °F 62% 30.63 in 10.0 mi SW 13.8 mph - N/A   Clear
9:53 AM 21.9 °F 7.3 °F 5.0 °F 48% 30.61 in 10.0 mi SW 18.4 mph - N/A   Clear
10:53 AM 28.0 °F 15.3 °F 8.1 °F 43% 30.57 in 10.0 mi SW 18.4 mph - N/A   Clear
11:53 AM 34.0 °F 22.4 °F 10.0 °F 37% 30.48 in 10.0 mi SSW 20.7 mph - N/A   Clear
12:53 PM 39.0 °F 29.6 °F 12.0 °F 33% 30.44 in 10.0 mi WSW 18.4 mph 27.6 mph N/A   Clear
1:53 PM 43.0 °F 34.0 °F 12.0 °F 28% 30.36 in 10.0 mi WSW 21.9 mph 29.9 mph N/A   Clear
2:53 PM 45.0 °F 36.4 °F 12.9 °F 27% 30.32 in 10.0 mi SW 23.0 mph - N/A   Clear
3:53 PM 46.9 °F - 12.0 °F 24% 30.28 in 10.0 mi SW 21.9 mph - N/A   Clear
4:53 PM 46.9 °F - 12.0 °F 24% 30.26 in 10.0 mi SW 19.6 mph - N/A   Clear
5:53 PM 42.1 °F 34.5 °F 10.9 °F 28% 30.25 in 10.0 mi SSW 15.0 mph - N/A   Clear
6:53 PM 35.1 °F 25.5 °F 10.9 °F 37% 30.25 in 10.0 mi SSW 15.0 mph - N/A   Clear
7:53 PM 34.0 °F 23.8 °F 10.9 °F 38% 30.23 in 10.0 mi SSW 16.1 mph - N/A   Clear
8:53 PM 33.1 °F 22.6 °F 10.9 °F 40% 30.21 in 10.0 mi SSW 16.1 mph - N/A   Clear
9:53 PM 32.0 °F 22.1 °F 10.9 °F 42% 30.19 in 10.0 mi SSW 13.8 mph - N/A   Clear
10:53 PM 30.0 °F 20.0 °F 10.0 °F 43% 30.18 in 10.0 mi SW 12.7 mph - N/A   Clear
11:53 PM 28.0 °F 18.1 °F 10.9 °F 49% 30.16 in 10.0 mi SW 11.5 mph - N/A   Clear